When you browse on this site, cookies collect data to enhance your experience and personalize the content and advertising you see.
Visit our Privacy Policy to learn more. By continuing to use the site, you agree to this use of cookies and data.
  • In United Kingdom
  • List of Countries
  • For 7 days
  • Water Temperature
  • Satellite Maps
  • Weather Map
  • Weather Widgets
  • user-avatar
    Login

    Hourly Weather Dangriga

    Today, 23 January, Wednesday

    Time Temperature Precipitation Wind Pressure Humidity
    00:00 +26°C° 0 mm 4 mps 761 mmHg 86%
    01:00 +26°C° 0.1 mm 4 mps 760 mmHg 87%
    02:00 +26°C° 0.1 mm 4 mps 760 mmHg 89%
    03:00 +26°C° 0.1 mm 4 mps 760 mmHg 91%
    04:00 +26°C° 0.1 mm 4 mps 760 mmHg 91%
    05:00 +26°C° 0.1 mm 4 mps 760 mmHg 91%
    06:00 +26°C° 0 mm 4 mps 760 mmHg 90%
    07:00 +26°C° 0 mm 4 mps 760 mmHg 87%
    08:00 +27°C° 0 mm 4 mps 760 mmHg 85%
    09:00 +28°C° 0 mm 4 mps 760 mmHg 82%
    10:00 +29°C° 0 mm 3 mps 760 mmHg 74%
    11:00 +30°C° 0 mm 3 mps 760 mmHg 67%
    12:00 +31°C° 0 mm 3 mps 760 mmHg 60%
    13:00 +31°C° 0 mm 3 mps 759 mmHg 60%
    14:00 +31°C° 0 mm 3 mps 759 mmHg 60%
    15:00 +30°C° 0 mm 3 mps 758 mmHg 60%
    16:00 +29°C° 0 mm 3 mps 758 mmHg 68%
    17:00 +27°C° 0 mm 3 mps 758 mmHg 77%
    18:00 +26°C° 0 mm 3 mps 758 mmHg 86%
    19:00 +25°C° 0 mm 2 mps 759 mmHg 89%
    20:00 +25°C° 0 mm 2 mps 759 mmHg 93%
    21:00 +24°C° 0 mm 2 mps 760 mmHg 96%
    22:00 +24°C° 0 mm 1 mps 760 mmHg 96%
    23:00 +24°C° 0 mm 1 mps 760 mmHg 96%

    Tomorrow, 24 January, Thursday

    Time Temperature Precipitation Wind Pressure Humidity
    00:00 +24°C° 0 mm 1 mps 761 mmHg 97%
    01:00 +24°C° 0.1 mm 2 mps 760 mmHg 96%
    02:00 +24°C° 0.1 mm 2 mps 760 mmHg 96%
    03:00 +24°C° 0.1 mm 3 mps 760 mmHg 96%
    04:00 +24°C° 0.2 mm 3 mps 760 mmHg 95%
    05:00 +22°C° 0.2 mm 3 mps 761 mmHg 94%
    06:00 +22°C° 0.2 mm 4 mps 761 mmHg 93%
    07:00 +25°C° 0 mm 4 mps 761 mmHg 84%
    08:00 +27°C° 0 mm 3 mps 762 mmHg 75%
    09:00 +29°C° 0 mm 3 mps 762 mmHg 67%
    10:00 +30°C° 0 mm 3 mps 762 mmHg 62%
    11:00 +31°C° 0 mm 2 mps 762 mmHg 57%
    12:00 +34°C° 0 mm 2 mps 762 mmHg 52%
    13:00 +32°C° 0.1 mm 2 mps 761 mmHg 58%
    14:00 +31°C° 0.1 mm 2 mps 760 mmHg 64%
    15:00 +30°C° 0.1 mm 2 mps 760 mmHg 70%
    16:00 +29°C° 0.1 mm 1 mps 760 mmHg 76%
    17:00 +27°C° 0.1 mm 1 mps 760 mmHg 83%
    18:00 +26°C° 0.1 mm 1 mps 760 mmHg 89%
    19:00 +26°C° 0.1 mm 1 mps 761 mmHg 91%
    20:00 +25°C° 0.1 mm 1 mps 761 mmHg 93%
    21:00 +25°C° 0.1 mm 1 mps 762 mmHg 94%
    22:00 +25°C° 0.1 mm 1 mps 762 mmHg 95%
    23:00 +25°C° 0.1 mm 2 mps 762 mmHg 96%

    Day after tomorrow, 25 January, Friday

    Time Temperature Precipitation Wind Pressure Humidity
    00:00 +24°C° 0.1 mm 2 mps 762 mmHg 96%
    01:00 +24°C° 0 mm 3 mps 761 mmHg 96%
    02:00 +24°C° 0 mm 3 mps 761 mmHg 96%
    03:00 +23°C° 0 mm 4 mps 761 mmHg 95%
    04:00 +23°C° 0 mm 4 mps 761 mmHg 94%
    05:00 +23°C° 0 mm 4 mps 761 mmHg 94%
    06:00 +23°C° 0 mm 4 mps 762 mmHg 93%
    07:00 +25°C° 0.4 mm 4 mps 762 mmHg 91%
    08:00 +26°C° 0.4 mm 4 mps 763 mmHg 90%
    09:00 +26°C° 0.4 mm 4 mps 764 mmHg 88%
    10:00 +26°C° 0.9 mm 3 mps 764 mmHg 91%
    11:00 +25°C° 0.9 mm 3 mps 763 mmHg 93%
    12:00 +25°C° 0.9 mm 3 mps 763 mmHg 96%
    13:00 +25°C° 0.3 mm 3 mps 763 mmHg 94%
    14:00 +25°C° 0.3 mm 3 mps 762 mmHg 93%
    15:00 +26°C° 0.3 mm 4 mps 761 mmHg 92%
    16:00 +25°C° 0.1 mm 4 mps 762 mmHg 91%
    17:00 +25°C° 0.1 mm 4 mps 762 mmHg 89%
    18:00 +25°C° 0.1 mm 4 mps 762 mmHg 88%
    19:00 +25°C° 0.1 mm 4 mps 763 mmHg 89%
    20:00 +25°C° 0.1 mm 4 mps 763 mmHg 90%
    21:00 +23°C° 0.1 mm 4 mps 764 mmHg 91%
    22:00 +23°C° 0.2 mm 4 mps 763 mmHg 92%
    23:00 +23°C° 0.2 mm 4 mps 763 mmHg 93%

    26 January, Saturday

    Time Temperature Precipitation Wind Pressure Humidity
    00:00 +23°C° 0.2 mm 4 mps 763 mmHg 93%
    01:00 +22°C° 0.3 mm 4 mps 763 mmHg 93%
    02:00 +22°C° 0.3 mm 5 mps 762 mmHg 93%
    03:00 +22°C° 0.3 mm 5 mps 762 mmHg 93%
    04:00 +22°C° 0.1 mm 5 mps 762 mmHg 93%
    05:00 +22°C° 0.1 mm 5 mps 762 mmHg 93%
    06:00 +22°C° 0.1 mm 5 mps 762 mmHg 92%
    07:00 +22°C° 0 mm 5 mps 762 mmHg 89%
    08:00 +23°C° 0 mm 5 mps 763 mmHg 85%
    09:00 +25°C° 0 mm 4 mps 763 mmHg 81%
    10:00 +26°C° 0 mm 4 mps 763 mmHg 78%
    11:00 +27°C° 0 mm 4 mps 763 mmHg 74%
    12:00 +28°C° 0 mm 4 mps 763 mmHg 71%
    13:00 +28°C° 0.2 mm 4 mps 762 mmHg 72%
    14:00 +27°C° 0.2 mm 4 mps 761 mmHg 73%
    15:00 +27°C° 0.2 mm 4 mps 760 mmHg 74%
    16:00 +26°C° 0.2 mm 4 mps 760 mmHg 80%
    17:00 +25°C° 0.2 mm 3 mps 760 mmHg 85%
    18:00 +24°C° 0.2 mm 3 mps 760 mmHg 91%
    19:00 +24°C° 0 mm 3 mps 761 mmHg 91%
    20:00 +24°C° 0 mm 3 mps 761 mmHg 92%
    21:00 +24°C° 0 mm 2 mps 761 mmHg 92%
    22:00 +23°C° 0 mm 2 mps 761 mmHg 93%
    23:00 +23°C° 0 mm 2 mps 761 mmHg 95%

    27 January, Sunday

    Time Temperature Precipitation Wind Pressure Humidity
    00:00 +23°C° 0 mm 2 mps 761 mmHg 96%
    01:00 +23°C° 0 mm 2 mps 760 mmHg 96%
    02:00 +23°C° 0 mm 2 mps 760 mmHg 96%
    03:00 +23°C° 0 mm 2 mps 759 mmHg 96%
    04:00 +23°C° 0 mm 2 mps 759 mmHg 95%
    05:00 +23°C° 0 mm 2 mps 759 mmHg 94%
    06:00 +23°C° 0 mm 2 mps 759 mmHg 94%
    07:00 +25°C° 0 mm 2 mps 760 mmHg 86%
    08:00 +26°C° 0 mm 1 mps 760 mmHg 78%
    09:00 +28°C° 0 mm 1 mps 761 mmHg 70%
    10:00 +29°C° 0 mm 1 mps 760 mmHg 66%
    11:00 +30°C° 0 mm 1 mps 760 mmHg 62%
    12:00 +31°C° 0 mm 2 mps 759 mmHg 58%
    13:00 +31°C° 0 mm 2 mps 758 mmHg 60%
    14:00 +30°C° 0 mm 2 mps 757 mmHg 61%
    15:00 +30°C° 0 mm 3 mps 757 mmHg 63%
    16:00 +29°C° 0 mm 2 mps 757 mmHg 71%
    17:00 +27°C° 0 mm 2 mps 757 mmHg 80%
    18:00 +25°C° 0 mm 2 mps 757 mmHg 88%
    19:00 +25°C° 0 mm 2 mps 757 mmHg 90%
    20:00 +25°C° 0 mm 2 mps 758 mmHg 91%
    21:00 +24°C° 0 mm 2 mps 759 mmHg 93%
    22:00 +24°C° 0 mm 1 mps 759 mmHg 94%
    23:00 +24°C° 0 mm 1 mps 759 mmHg 94%

    28 January, Monday

    Time Temperature Precipitation Wind Pressure Humidity
    00:00 +24°C° 0 mm 1 mps 759 mmHg 95%
    01:00 +24°C° 0 mm 1 mps 758 mmHg 94%
    02:00 +24°C° 0 mm 2 mps 758 mmHg 93%
    03:00 +24°C° 0 mm 3 mps 758 mmHg 93%
    04:00 +24°C° 0 mm 3 mps 758 mmHg 91%
    05:00 +23°C° 0 mm 4 mps 758 mmHg 89%
    06:00 +23°C° 0 mm 4 mps 759 mmHg 88%
    07:00 +25°C° 0 mm 4 mps 759 mmHg 82%
    08:00 +26°C° 0 mm 4 mps 760 mmHg 76%
    09:00 +27°C° 0 mm 4 mps 761 mmHg 70%
    10:00 +29°C° 0 mm 3 mps 760 mmHg 64%
    11:00 +30°C° 0 mm 3 mps 760 mmHg 57%
    12:00 +32°C° 0 mm 2 mps 760 mmHg 51%
    13:00 +31°C° 0 mm 2 mps 759 mmHg 51%
    14:00 +31°C° 0 mm 2 mps 758 mmHg 51%
    15:00 +31°C° 0 mm 2 mps 758 mmHg 51%
    16:00 +29°C° 0 mm 1 mps 758 mmHg 59%
    17:00 +28°C° 0 mm 1 mps 758 mmHg 67%
    18:00 +26°C° 0 mm 1 mps 758 mmHg 75%
    19:00 +25°C° 0 mm 1 mps 759 mmHg 79%
    20:00 +25°C° 0 mm 1 mps 759 mmHg 82%
    21:00 +24°C° 0 mm 1 mps 760 mmHg 86%
    22:00 +24°C° 0 mm 1 mps 759 mmHg 86%
    23:00 +24°C° 0 mm 1 mps 759 mmHg 87%
    Show more